Hourly Data Report for March 07, 2015

All times are specified in Local Standard Time (LST). Add 1 hour to adjust for Daylight Saving Time where and when it is observed.

MIRAMICHI RCS
NEW BRUNSWICK

47°00'34.000" N
65°27'54.000" W
33.00 m
8100989
71744
ACQ

Download Data

Hourly Data (March 2015)
Hourly Data Report for March 7, 2015
TIME Temp Definition
°C
Dew Point Definition
°C
Rel Hum Definition
%
Wind Dir Definition
10's deg

Wind Spd Definition
km/h
Visibility Definition
km
Stn Press Definition
kPa
Hmdx Definition


Wind Chill Definition


Weather Definition


00:00 -11.0 -20.7 45 23 15   101.64   -18 LegendNANA
01:00 -11.1 -20.4 46 24 13   101.62   -18 LegendNANA
02:00 -10.8 -20.2 46 23 19   101.56   -19 LegendNANA
03:00 -11.7 -20.2 49 22 21   101.50   -20 LegendNANA
04:00 -12.9 -20.4 53 22 19   101.45   -21 LegendNANA
05:00 -13.7 -20.2 58 23 17   101.40   -22 LegendNANA
06:00 -14.3 -20.2 61 22 16   101.35   -22 LegendNANA
07:00 -14.7 -20.5 61 24 12   101.30   -22 LegendNANA
08:00 -13.9 -19.9 61 25 15   101.22   -22 LegendNANA
09:00 -12.4 -19.5 55 24 15   101.18   -20 LegendNANA
10:00 -8.8 -17.3 50 24 21   101.11   -17 LegendNANA
11:00 -6.3 -16.1 46 24 21   101.00   -13 LegendNANA
12:00 -4.3 -15.2 42 23 20   100.89   -11 LegendNANA
13:00 -2.7 -14.2 41 24 25   100.79   -9 LegendNANA
14:00 -2.1 -11.4 49 24 27   100.69   -9 LegendNANA
15:00 -1.3 -10.9 48 24 27   100.64   -8 LegendNANA
16:00 -2.3 -11.6 49 24 28   100.62   -9 LegendNANA
17:00 -2.2 -12.7 44 25 29   100.62   -9 LegendNANA
18:00 -2.9 -12.8 46 25 16   100.65   -8 LegendNANA
19:00 -4.5 -13.4 50 25 12   100.72   -9 LegendNANA
20:00 -7.0 -14.0 58 23 7   100.71   -11 LegendNANA
21:00 -9.2 -14.9 63 24 7   100.73   -13 LegendNANA
22:00 -8.3 -13.8 64 25 9   100.76   -13 LegendNANA
23:00 -8.2 -13.9 63 25 8   100.80   -12 LegendNANA

Notes on Data Quality.

Legend

  • E = Estimated
  • M = Missing
  • NA = Not Available
Date modified: